SCP
0 0 0 0 0 0 0 0 0 0 0 0 0 0 0 0 0 0 0 0 0 0 0 0 0 0 0 0 0 0 0 0 0 0 0 0 0 0
0 0 0 0 0 0 0 0 0 0 0 0 0 0 0 0 0 0 0 0 0 0 0 0 0 0 0 0 0 0 0 0 0 0 0 0 0 0
0 0 0 0 0 0 0 0 0 0 0 0 0 0 0 0 0 0 0 0 0 0 0 0 0 0 0 0 0 0 0 0 0 0 0 0 0 0
0 0 0 0 0 0 0 0 0 0 0 0 0 0 0 0 0 0 0 0 0 0 0 0 0 0 0 0 0 0 0 0 0 0 0 0 0 0
0 0 0 0 0 0 0 0 0 0 0 0 0 0 0 0 0 0 0 0 0 0 0 0 0 0 0 0 0 0 0 0 0 0 0 0 0 0
0 0 0 0 0 0 0 0 0 0 0 0 0 0 0 0 0 0 0 0 0 0 0 0 0 0 0 0 0 0 0 0 0 0 0 0 0 0
0 0 0 0 0 0 0 0 0 0 0 0 0 0 0 0 0 0 0 0 0 0 0 0 0 0 0 0 0 0 0 0 0 0 0 0 0 0
0 0 0 0 0 0 0 0 0 0 0 0 0 0 0 0 0 0 0 0 0 0 0 0 0 0 0 0 0 0 0 0 0 0 0 0 0 0
0 0 0 0 0 0 0 0 0 0 0 0 0 0 0 0 0 0 0 0 0 0 0 0 0 0 0 0 0 0 0 0 0 0 0 0 0 0
0 0 0 0 0 0 0 0 0 0 0 0 0 0 0 0 0 0 0 0 0 0 0 0 0 0 0 0 0 0 0 0 0 0 0 0 0 0
0 0 0 0 0 0 0 0 0 0 0 0 0 0 0 0 0 0 0 0 0 0 0 0 0 0 0 0 0 0 0 0 0 0 0 0 0 0
0 0 0 0 0 0 0 0 0 0 0 0 0 0 0 0 0 0 0 0 0 0 0 0 0 0 0 0 0 0 0 0 0 0 0 0 0 0
0 0 0 0 0 0 0 0 0 0 0 0 0 0 0 0 0 0 0 0 0 0 0 0 0 0 0 0 0 0 0 0 0 0 0 0 0 0
0 0 0 0 0 0 0 0 0 0 0 0 0 0 0 0 0 0 0 0 0 0 0 0 0 0 0 0 0 0 0 0 0 0 0 0 0 0
0 0 0 0 0 0 0 0 0 0 0 0 0 0 0 0 0 0 0 0 0 0 0 0 0 0 0 0 0 0 0 0 0 0 0 0 0 0
0 0 0 0 0 0 0 0 0 0 0 0 0 0 0 0 0 0 0 0 0 0 0 0 0 0 0 0 0 0 0 0 0 0 0 0 0 0
0 0 0 0 0 0 0 0 0 0 0 0 0 0 0 0 0 0 0 0 0 0 0 0 0 0 0 0 0 0 0 0 0 0 0 0 0 0
0 0 0 0 0 0 0 0 0 0 0 0 0 0 0 0 0 0 0 0 0 0 0 0 0 0 0 0 0 0 0 0 0 0 0 0 0 0
0 0 0 0 0 0 0 0 0 0 0 0 0 0 0 0 0 0 0 0 0 0 0 0 0 0 0 0 0 0 0 0 0 0 0 0 0 0
0 0 0 0 0 0 0 0 0 0 0 0 0 0 0 0 0 0 0 0 0 0 0 0 0 0 0 0 0 0 0 0 0 0 0 0 0 0
0 0 0 0 0 0 0 0 0 0 0 0 0 0 0 0 0 0 0 0 0 0 0 0 0 0 0 0 0 0 0 0 0 0 0 0 0 0
0 0 0 0 0 0 0 0 0 0 0 0 0 0 0 0 0 0 0 0 0 0 0 0 0 0 0 0 0 0 0 0 0 0 0 0 0 0
0 0 0 0 0 0 0 0 0 0 0 0 0 0 0 0 0 0 0 0 0 0 0 0 0 0 0 0 0 0 0 0 0 0 0 0 0 0
Wind_Speed
6 6 5 5 5 5 5 5 7 13 10 5 4 5 6 6 13 10 8 18 24 26 26 26 26 26 26 26 25 25 25 25 25 26 28 29 30 30
5 6 6 5 5 5 5 5 5 9 13 5 5 6 8 10 15 11 9 23 25 26 26 26 26 26 25 25 25 25 25 25 26 26 28 28 29 29
7 7 8 7 6 5 5 5 6 7 13 11 6 6 8 10 11 9 9 10 11 23 26 26 26 25 25 25 25 25 25 25 25 26 27 27 27 27
8 8 9 7 7 6 6 7 7 7 11 16 9 7 9 10 10 10 10 10 8 18 24 25 25 25 25 25 24 24 24 24 25 25 26 26 26 26
9 9 9 8 9 7 8 8 8 9 9 12 12 8 7 8 9 9 11 9 10 14 20 21 22 23 23 23 23 23 23 22 23 23 24 24 24 25
9 9 9 9 10 9 9 9 9 9 9 10 11 9 7 7 7 8 8 6 8 9 13 16 19 22 23 23 22 21 21 21 22 22 22 22 22 23
9 9 9 13 16 14 11 9 8 8 8 9 10 9 8 6 7 6 9 8 8 7 7 8 8 7 9 15 19 20 21 21 21 21 21 21 20 21
9 9 9 12 15 21 23 22 19 13 10 10 10 11 11 9 8 8 9 9 8 4 5 7 5 7 7 6 15 20 21 21 20 20 20 20 20 20
8 8 9 10 16 9 16 21 19 23 22 15 13 13 12 10 10 11 10 11 11 5 5 8 6 8 7 9 19 20 20 20 19 18 18 18 18 19
8 9 10 10 10 13 11 11 11 12 15 12 11 12 12 11 11 12 12 11 10 7 6 8 6 7 7 6 15 19 19 18 18 17 17 17 17 17
9 9 10 10 17 23 15 11 12 10 16 21 22 21 23 23 17 8 7 8 9 5 5 5 5 5 5 6 9 16 17 17 16 16 15 15 15 15
8 9 16 17 20 23 13 10 13 11 10 11 13 15 13 13 18 10 6 8 7 5 4 4 4 3 4 3 3 4 6 11 15 14 14 13 13 6
8 6 8 19 23 24 20 11 15 16 9 8 7 7 6 6 6 6 6 6 7 6 3 3 3 3 4 4 3 3 3 3 4 5 8 10 10 7
8 7 9 21 23 24 18 17 23 19 6 6 6 6 6 6 5 6 7 7 7 8 6 6 5 4 4 5 4 3 2 3 2 3 2 6 7 8
9 17 21 23 22 15 17 22 17 7 5 6 7 7 5 6 6 5 6 6 7 7 7 8 7 5 5 5 4 3 2 2 2 2 2 2 2 2
11 15 21 21 17 15 14 11 6 6 7 7 7 6 5 5 5 5 5 4 5 5 5 6 7 7 6 6 5 4 4 3 2 2 2 2 2 2
12 8 6 6 6 5 6 6 6 6 6 5 6 6 6 6 6 4 4 4 4 4 4 3 4 5 6 5 4 5 4 3 3 2 2 2 2 3
16 7 7 6 7 6 6 6 6 6 6 6 6 6 6 6 6 5 4 4 5 5 5 3 2 2 2 4 7 5 4 3 3 3 2 2 3 2
10 7 7 7 7 7 6 7 7 7 6 6 6 6 6 6 6 6 5 5 5 5 4 3 3 3 4 4 4 6 4 3 2 3 3 3 3 3
7 8 8 8 7 7 7 7 7 6 6 6 6 6 6 6 6 6 5 6 5 5 4 3 4 4 5 4 3 3 7 5 3 3 3 2 2 3
8 8 7 7 8 8 7 7 7 7 7 6 6 6 6 6 6 6 6 9 7 5 5 5 5 7 3 2 2 3 3 6 6 4 3 2 2 2
8 8 8 8 8 8 7 7 7 7 7 7 7 7 6 6 7 8 7 6 6 5 6 4 3 3 3 4 5 4 3 3 6 9 9 7 4 4
9 8 8 8 8 7 7 8 9 8 7 7 7 7 6 6 6 7 7 6 6 6 5 4 3 3 4 4 4 4 4 4 2 3 4 9 12 11
Wind_Direction
267 268 264 263 260 258 258 258 279 296 293 267 266 260 262 264 273 276 264 278 286 287 286 285 283 283 281 277 275 273 271 271 272 272 271 270 270 269
265 267 266 265 263 259 256 256 252 275 287 278 269 266 270 279 283 283 274 284 288 288 287 285 283 282 281 278 275 273 271 270 270 270 269 268 267 268
273 271 269 268 265 262 258 258 260 264 283 288 268 266 264 269 277 273 272 271 275 281 283 283 282 281 280 278 276 273 271 271 271 270 269 268 266 266
275 272 272 273 267 264 262 263 265 264 274 287 287 275 266 266 268 268 274 275 268 278 281 282 282 281 280 278 276 274 272 271 271 270 270 269 268 268
269 268 270 270 272 269 266 268 268 271 268 278 286 281 274 272 273 272 271 272 273 277 280 281 282 282 282 280 278 276 273 272 271 270 269 268 268 269
264 262 265 265 268 270 271 268 268 270 270 275 283 285 280 271 266 272 276 264 267 272 276 278 280 282 282 283 281 279 278 276 274 271 268 266 266 267
267 263 262 270 276 282 283 275 270 273 277 281 284 287 285 283 275 272 278 277 267 259 262 266 270 269 273 278 281 280 278 275 273 272 269 267 265 264
271 269 269 278 284 289 292 293 290 286 283 281 285 284 285 281 279 277 280 282 281 240 246 261 252 260 259 255 268 273 274 273 271 269 268 266 266 263
269 271 277 278 292 283 286 289 288 287 286 283 282 281 281 279 278 279 274 273 274 263 255 270 256 260 258 264 272 273 273 271 270 269 268 267 265 263
266 265 268 273 275 282 273 272 270 273 276 277 268 268 270 269 263 268 274 275 269 258 245 266 260 258 262 257 268 271 272 271 270 268 266 266 266 264
267 265 270 268 278 290 289 281 280 276 282 283 281 282 283 288 288 281 275 278 279 264 225 247 260 263 261 256 261 267 270 271 270 268 267 266 266 261
271 265 277 283 287 292 289 283 285 283 279 281 283 284 285 284 288 281 272 274 277 273 227 230 253 264 276 261 259 270 276 276 274 271 269 269 268 262
278 271 267 286 291 291 291 284 284 291 284 281 281 277 272 266 265 261 252 255 266 263 241 234 248 241 251 276 278 260 250 255 269 275 276 275 273 263
282 274 272 285 289 292 294 292 295 300 292 285 280 276 273 271 268 263 258 253 252 258 253 239 246 243 251 261 268 270 261 252 241 248 251 275 280 277
280 284 288 292 296 295 292 294 297 294 285 280 279 277 269 267 270 271 266 261 261 258 253 240 240 242 242 250 255 249 260 262 232 228 231 224 231 250
286 284 288 290 289 286 289 291 281 266 272 271 273 274 273 272 271 268 270 270 273 273 254 240 237 238 245 244 243 245 226 235 236 216 217 230 224 216
289 279 272 275 270 267 270 269 264 268 275 267 270 276 277 276 274 267 260 260 259 269 276 260 239 237 240 241 243 238 229 228 225 209 196 234 239 220
301 289 282 277 275 273 275 276 270 266 264 263 265 269 273 274 277 271 259 254 261 264 262 253 241 257 260 251 230 234 228 222 215 200 192 214 248 236
297 283 279 277 275 272 269 271 272 267 262 263 266 264 266 269 270 271 266 260 259 259 256 241 221 220 241 252 255 220 212 212 201 205 206 210 230 233
275 274 275 275 274 271 269 270 270 268 263 261 259 259 260 263 266 265 262 257 261 260 257 241 224 220 228 233 235 236 218 208 205 215 216 215 240 247
280 274 273 275 274 271 268 267 267 267 264 260 258 256 254 254 258 259 257 261 262 255 252 247 240 242 236 192 232 246 238 222 213 208 193 193 216 217
282 279 275 273 273 272 268 267 266 264 262 259 257 256 252 250 255 256 253 252 249 246 251 253 240 224 205 216 232 240 245 242 234 231 222 210 192 200
280 280 279 277 272 269 269 266 263 263 261 258 257 255 251 251 251 252 250 246 246 245 245 247 236 219 220 219 226 232 234 233 221 223 235 235 234 236